www.pogodaiklimat.ru
ПОГОДА в Кирсе

Архив погоды в Кирсе (Кировская область, Россия)

Время
(UTC), дата
18 17.02
21 17.02
00 18.02
03 18.02
06 18.02
09 18.02
12 18.02
15 18.02
18 18.02
21 18.02
00 19.02
03 19.02
06 19.02
09 19.02
12 19.02
15 19.02
18 19.02
21 19.02
00 20.02
03 20.02
06 20.02
09 20.02
12 20.02
15 20.02
18 20.02
21 20.02
00 21.02
03 21.02
06 21.02
09 21.02
12 21.02
15 21.02
18 21.02
21 21.02
00 22.02
03 22.02
06 22.02
09 22.02
12 22.02
15 22.02
18 22.02
21 22.02
00 23.02
03 23.02
06 23.02
09 23.02
12 23.02
15 23.02
18 23.02
21 23.02
00 24.02
03 24.02
06 24.02
09 24.02
12 24.02
15 24.02
Ветер
(напр.,м/с)
Видим. Явления Облачность Т
(С)
Тd
(С)
f
(%)
Тe
(С)
Тes
(С)
Комфортность P
(гПа)
Po
(гПа)
Тmin
(С)
Tmax
(С)
R
(мм)
R24
(мм)
S
(см)
Ю 4-8 {8} 20 км 4/0 [Ci fib] -15.4 -19.4 71 -23 -23 1033.7 1010.9
Ю 4-7 {9} 10 км слаб. снег {метель} 10/0 [As trans] -15.7 -19.6 72 -24 -24 1030.8 1007.9
Ю 4-6 {9} 20 км позёмок {снег, метель} 10/0 [As op] -15.7 -20.0 69 -24 -24 1027.8 1005.0
Ю 5-8 {9} 4000 м слаб. снег {метель} 10/0 [As op] -15.0 -18.9 72 -24 -24 1024.3 1001.7 -15.8 0.0 75
Ю 6-11 {10} 10 км слаб. снег {метель} 10/0 [As trans] -12.9 -16.8 73 -22 -22 1021.5 999.2
Ю 5-9 {11} 4000 м слаб. снег {метель} 10/0 [As op] -10.6 -14.9 71 -18 -18 1019.3 997.1
Ю 6-10 {11} 4200 м слаб. снег {метель} 10/0 [As op] -8.8 -13.2 70 -17 -17 1017.8 995.8
Ю 5-8 {10} 4000 м слаб. снег {метель} 10/0 [As op] -8.6 -11.8 78 -16 -16 1017.6 995.7 -8.5 0.6
Ю 4-6 {10} 4000 м слаб. снег {метель} 10/0 [As trans] -8.9 -12.1 78 -16 -16 1017.2 995.2
Ю 4-6 {10} 4000 м слаб. снег {метель} 10/0 [As op] -8.8 -11.7 79 -16 -16 1016.6 994.7
Ю 4-6 {7} 4000 м слаб. снег {метель} 10/0 [As op] -9.0 -11.9 79 -16 -16 1016.8 994.9
Ю 3-5 {6} 4000 м слаб. снег {метель} 10/0 [As op] -8.9 -11.8 79 -15 -15 1017.4 995.5 -9.1 2 76
ЮЗ 3-5 {6} 4200 м слаб. ливневой снег 10/6 300 м [Cb cap Ac As] -8.4 -11.6 78 -14 -14 1019.3 997.4 -9.2
ЮЗ 3-4 {6} 6000 м слаб. ливневой снег 10/8 300 м [Cb cap Ac und] -6.6 -10.8 72 -12 -12 1021.1 999.3
ЮЗ 2-4 {4} 4800 м слаб. ливневой снег 10/10 300 м [Cb cap] -5.7 -9.4 75 -10 -10 1022.6 1000.8
Ю 2-3 {4} 10 км слаб. ливневой снег 10/10 300 м [Cb cap] -6.5 -9.7 78 -11 -11 1024.0 1002.1 -5.7 0.2
Ю 2-3 {4} 4000 м слаб. ливневой снег 10/10 300 м [Cb cap] -6.9 -9.8 80 -11 -11 1025.0 1003.1
Ю 3-5 {5} 20 км слаб. ливневой снег 10/10 300 м [Cb cap] -7.0 -9.5 82 -13 -13 1025.8 1003.8
Ю 2-4 {5} н/о н/о -7.3 -9.3 86 1026.5 1004.4
Ю 2-4 {5} 10 км слаб. ливневой снег 10/10 300 м [Cb cap] -7.3 -9.4 85 -12 -12 1027.0 1005.0 -7.3 0.2 76
ЮЗ 4-7 {6} 20 км в посл. час ливневой снег 9/9 600 м [Sc] -6.2 -10.1 74 -13 -13 1027.4 1005.5
Ю 4-7 {10} 8000 м слаб. ливневой снег 10/10 300 м [Cb cap] -5.1 -9.7 70 -11 -11 1027.4 1005.5
ЮЗ 5-7 {8} 20 км {ливн. снег} 10/10 300 м [Cb cap] -5.0 -9.6 70 -12 -12 1027.5 1005.6
ЮЗ 4-7 {8} 20 км 10/10 300 м [Cb cap] -5.9 -10.0 73 -12 -12 1027.5 1005.6 -4.8 0.0
ЮЗ 4-8 {10} 20 км позёмок {метель} 9/9 300 м [Cb cap] -6.7 -10.9 72 -13 -13 1027.1 1005.1
ЮЗ 5-8 {10} 10 км слаб. ливневой снег {метель} 10/10 300 м [Cb cap] -7.5 -11.3 74 -15 -15 1026.9 1004.9
ЮЗ 4-9 {9} 20 км позёмок {ливн. снег, метель} 10/10 600 м [Sc] -7.4 -11.3 74 -14 -14 1026.6 1004.6
ЮЗ 4-7 {8} 10 км слаб. ливневой снег {метель} 10/10 300 м [Cb cap] -7.6 -11.5 74 -14 -14 1026.2 1004.2 -7.6 0.0 75
ЮЗ 4-8 {8} 7000 м слаб. ливневой снег {метель} 10/10 300 м [Cb cap] -7.6 -11.6 73 -14 -14 1026.5 1004.5 -7.7
ЮЗ 5-8 {9} 20 км слаб. ливневой снег {метель} 10/8 300 м [Cb cap Ac und] -7.3 -12.4 67 -15 -14 1026.9 1004.9
ЮЗ 3-6 {8} 20 км слаб. ливневой снег {метель} 9/9 300 м [Cb cap] -7.1 -12.4 66 -13 -13 1027.1 1005.1
ЮЗ 3-5 {8} 20 км {ливн. снег} 10/8 600 м [Sc Ac und] -7.7 -12.3 70 -13 -13 1027.7 1005.6 -7.0 0.0
ЮЗ 3-6 {8} 20 км {ливн. снег} 9/9 600 м [Sc] -8.6 -12.8 72 -14 -14 1028.0 1005.8
ЮЗ 3-5 {5} 10 км слаб. ливневой снег 10/10 300 м [Cb cap] -9.1 -13.0 73 -15 -15 1028.5 1006.3
ЮЗ 2-3 {5} 20 км {ливн. снег} 10/10 600 м [Sc] -9.4 -12.8 76 -14 -14 1028.7 1006.5
ЮЗ 2-3 {5} 10 км слаб. ливневой снег 10/10 300 м [Cb cap] -9.5 -12.9 76 -14 -14 1028.9 1006.7 -10.4 0.0 73
ЮЗ 3-4 {4} 9000 м слаб. ливневой снег 9/8 300 м [Cb cap Ac trans] -9.0 -12.8 74 -15 -15 1029.3 1007.1
ЮЗ 3-6 {8} 20 км слаб. ливневой снег 9/9 300 м [Cb cap] -7.8 -13.2 65 -13 -13 1029.5 1007.4
ЮЗ 3-5 {7} 20 км {ливн. снег} 10/3 600 м [Sc Ac trans Ci fib] -7.7 -13.4 64 -13 -13 1029.3 1007.2
Ю 2-4 {4} 20 км 4/0 [Ac trans] -9.8 -13.7 73 -14 -14 1029.5 1007.2 -6.9 0.0
Ю 2-3 {4} 20 км ясно -12.3 -15.0 80 -17 -17 1030.0 1007.5
Ю 2-3 {4} 20 км ясно -13.9 -16.4 81 -19 -19 1030.3 1007.6
Ю 2-5 {5} 20 км ясно -14.9 -17.7 79 -20 -20 1030.7 1007.9
Ю 3-5 {6} 20 км 9/4 600 м [Sc Ac trans] -14.4 -17.5 77 -21 -21 1031.0 1008.3 -15.0 72
Ю 2-4 {6} 20 км 9/9 1000 м [Sc] -12.4 -15.6 77 -17 -17 1031.7 1009.1
Ю 3-5 {7} 20 км 9/9 1000 м [Sc] -8.4 -13.0 69 -14 -14 1031.8 1009.6
Ю 3-5 {6} 20 км 10/10 600 м [Sc] -7.0 -12.2 66 -12 -12 1032.4 1010.3
Ю 3-5 {7} 20 км 9/9 1000 м [Sc] -8.2 -12.9 69 -14 -14 1033.3 1011.1 -6.9
Ю 2-3 {5} 20 км ясно -11.2 -14.3 78 -16 -16 1034.4 1011.9
Ю 2-3 {4} 20 км 10/10 300 м [Cb cap] -10.6 -14.0 76 -15 -15 1034.3 1011.8
ЮЗ 3-5 {5} 20 км в посл. час ливневой снег 10/10 300 м [Cb cap] -9.1 -13.2 72 -15 -15 1034.6 1012.3
Ю 3-5 {6} 20 км 10/10 300 м [Sc] -8.8 -12.5 75 -15 -15 1034.6 1012.3 -11.8 0.0 72
Ю 3-6 {6} 20 км 10/10 600 м [Sc] -7.7 -12.5 68 -13 -13 1035.3 1013.1
Ю 3-6 {7} 20 км 9/9 600 м [Sc] -5.4 -10.8 66 -11 -10 1034.7 1012.7
ЮЗ 4-7 {7} 20 км 10/4 600 м [Sc Ac trans] -4.4 -10.0 65 -10 -10 1034.5 1012.6
Ю 3-6 {8} 20 км 3/0 [Ac trans] -6.1 -11.0 68 -11 -11 1035.2 1013.1 -4.3
Местоположение метеостанции Кирс (Кировская область, Россия): широта 59.35 долгота 52.25 высота над уровнем моря 169 м.
В архиве по умолчанию представлена погода в Кирсе за последнюю неделю. Архивные данные за месяц целиком и за предыдущие месяцы, начиная с января 2011 года, Вы можете получить, выбрав интересующий диапазон дат из раскрывающегося списка и нажав кнопку "Найти!".
*Определитесь, кто Вы:
Внимание! Время в таблицах - всемирное. Для получения местного времени необходимо прибавить поправку, которая равна 3 ч.
Некоторые строки с данными для отдельных станций могут быть выделены курсивом. Это означает, что фактические данные отсутствуют по различным причинам, а приведенные значения являются расчетными модельными данными для данного пункта наблюдений.
Смотрите также архив погоды в соседних городах и на ближайших метеорологических станциях:
Партнеры нашего сайта:
Пептиды для загара купить в спб
Низкие цены! Доставка! Купить жиросжигатель
peptidshopmsk.ru

     
Пояснения к столбцам:
  • Ветер - указаны скорость ветра в м/с - средняя за 10 мин, порывы в срок и между сроками (в фигурных скобках) и направление, откуда дует ветер: С - северный,
  • СВ - северо-восточный, В - восточный, ЮВ - юго-восточный, Ю - южный, ЮЗ - юго-западный, З - западный, СЗ - северо-западный.
  • Видимость - горизонтальная дальность видимости в метрах или километрах. При видимости от 1 до 10 км при отсутствии осадков обычно наблюдается дымка, при ухудшении видимости до 1 км и менее - туман. В сухую погоду видимость может ухудшаться дымом, пылью или мглою.
  • Явления - указаны атмосферные явления, наблюдавшиеся в срок или в последний час перед сроком; фигурными скобками обозначены явления, наблюдавшиеся между сроками (за 1-3 часа до срока); квадратными скобками обозначены град или гололедные отложения с указанием их диаметра в мм.
  • Облачность - указаны через наклонную черту общая и нижняя облачность в баллах и высота нижней границы облаков в метрах; квадратными скобками обозначены формы облаков: Ci - перистые, Cs - перисто-слоистые, Cc - перисто-кучевые, Ac - высококучевые, As - высокослоистые, Sc - слоисто-кучевые, Ns - слоисто-дождевые, Cu - кучевые, Cb - кучево-дождевые. Подробнее классификацию облаков см. в Атласе облаков (PDF).
  • T - Температура воздуха - температура, измеренная на высоте 2 м над землей.
  • Td - Температура точки росы - температура, при понижении до которой содержащийся в воздухе водяной пар достигнет насыщения.
  • f - Относительная влажность воздуха - влажноcть воздуха, измеренная на высоте 2 м над землей.
  • Te - Эффективная температура - температура, которую ощущает одетый по сезону человек в тени. Характеристика душности погоды. При расчете учитывается влияние влажности воздуха и скорости ветра на теплоощущения человека.
  • Tes - Эффективная температура на солнце - температура, которую ощущает человек, с поправкой на солнечный нагрев. Характеристика знойности погоды. Зависит от высоты солнца над горизонтом, облачности и скорости ветра. Ночью, в пасмурную погоду, а также при ветре 12 м/с и более поправка равна нулю.
  • P - Атмосферное давление - приведенное к уровню моря атмосферное давление.
  • Po - Атмосферное давление - измеренное на уровне метеостанции атмосферное давление.
  • Tmin - Минимальная температура - минимум температуры воздуха на высоте 2 м над землей.
  • Tmax - Максимальная температура - максимум температуры воздуха на высоте 2 м над землей.
  • R - Количество осадков - Количество выпавших осадков за период времени, мм. При наведении курсора мыши на число - период времени, за который выпало указанное количество осадков.
  • R24 - Количество осадков - Количество выпавших осадков за 24 часа, мм.
  • S - Снежный покров - Высота снежного покрова, см. При наведении курсора мыши на число - состояние снежного покрова и степень покрытия местности в баллах.